Ямаровка

Россия / Забайкальский край     50°34′41″N   110°14′49″E
темп.,
°C
ветер,
м/с
пор.,
м/с
влажн.,
%
обл.,
%
осадки,
мм/ч
давл.,
гПа
погр.,
м
8 мая, сб
сб800:00−3юз119420 0.0 101511
03:00−4ююз11945 0.0 101611
06:00−5юз11956 0.0 101713
09:00+3з12675 0.0 1013417
12:00+8зсз234713 0.0 10101413
15:00+11з343252 0.0 10062413
18:00+11з452898 0.0 10052444
21:00+5з255784 0.0 100895
9 мая, вс
вс900:00+2юз227173 0.0 101135
03:00+1зюз227691 0.0 101240
06:00−2юз22925 0.0 101420
09:00+4з35635 0.0 1012694
12:00+9з4641100 0.0 10091857
15:00+11з463798 0.0 10072145
18:00+10зсз4644100 0.2 10061751
21:00+5юз117287 0.5 100810
10 мая, пн
пн1000:00+3ююв118371 0.0 101017
03:00+2ю1285100 0.0 100925
06:00+2зюз1183100 0.0 100822
09:00+3св1295100 2.8 1007191
12:00+2з2399100 3.9 1009181
15:00+3з2395100 4.7 1009425
18:00+3зюз2498100 2.0 1010405
21:00+2зюз269999 2.9 1011329
11 мая, вт
вт1100:00+1з3793100 0.2 1012417
03:00−1з3795100 0.3 1013712
06:00−1з2797100 0.3 1012522
09:000з3895100 0.6 1011613
12:00+2зсз5992100 0.7 1011855
15:00+4зсз4887100 1.9 1011862
18:00+5зсз587991 0.4 10111119
21:00+2з4119355 0.4 1014613
12 мая, ср
ср1200:00+1з499688 0.0 1015515
03:000з379644 0.0 1015407
06:00−2з269736 0.0 1015176
09:00+2з367828 0.0 1013618
12:00+8з36554 0.0 10081193
15:00+12зсз594146 0.1 10052186
18:00+12зсз484159 0.1 10042333
21:00+5з117820 0.2 100710